Weather Roundup
Issued by NWS

Home | Current Version | Previous Version | Text Only | Print | Product List | Glossary On
Versions: 1 2 3 4 5 6 7 8 9 10 11 12 13 14 15 16 17 18 19 20 21 22 23 24 25 26 27 28 29 30 31 32 33 34 35 36 37 38 39 40 41 42 43 44 45 46 47 48 49 50
000
NZUS93 KARX 300710
HRRWXR

CURRENT HOURLY OBSERVATIONS ACROSS
MUCH OF THE UPPER MISSISSIPPI VALLEY
NATIONAL WEATHER SERVICE LA CROSSE WI
200 AM CDT MON MAY 30 2016


...SOUTHEAST MINNESOTA...


CITY           SKY/WX    TMP DP  RH WIND       PRES   REMARKS
ROCHESTER      CLEAR     61  56  83 W7        30.02S
ROCHESTER/MAYO FAIR      64  57  80 CALM      30.02S
WINONA         CLEAR     59  57  94 CALM      29.99S
AUSTIN         CLEAR     57  54  88 CALM      30.02S
ALBERT LEA     CLEAR     57  55  94 CALM      30.03R
DODGE CENTER   PTCLDY    55  54  94 SW5       30.02S
PRESTON        CLEAR     60  56  87 W6        30.03S
OWATONNA       CLEAR     59  55  88 CALM      30.02S
FARIBAULT      MOCLDY    55  55 100 CALM      30.01F VSB 1/2
$$

...ELSEWHERE IN MINNESOTA...


CITY           SKY/WX    TMP DP  RH WIND       PRES   REMARKS
MINNEAPOLIS    CLEAR     64  57  78 CALM      29.99S
INTNL FALLS    CLEAR     47  46  97 W3        29.90S
DULUTH         CLEAR     51  48  89 W9        29.95R
RED WING       CLEAR     57  55  94 CALM      29.98F
REDWOOD FALLS  CLEAR     60  49  66 CALM      29.99F
MANKATO        CLEAR     61  55  82 CALM      30.01S
WORTHINGTON    CLEAR     60  54  80 CALM      30.03F
FAIRMONT       CLEAR     59  52  77 CALM      30.02S
$$

...SOUTHWEST WISCONSIN...


CITY           SKY/WX    TMP DP  RH WIND       PRES   REMARKS
LA CROSSE      PTCLDY    63  60  90 S5        29.98F
PRAIRIE DU CHI CLEAR     59  56  90 CALM      30.00S
BOSCOBEL       FOG       57  56  96 CALM      30.00S VSB 1/2
LONE ROCK      FOG       58  58 100 CALM      30.00F VSB 3/4
PLATTEVILLE    CLEAR     64  60  87 S3        30.01S
FORT MC COY    PTCLDY    56  55  99 CALM      30.00S
CAMP DOUGLAS   PTCLDY    55  55 100 E3        29.98S
MAUSTON-NEW LI MOSUNNY   60  58  92 CALM      29.98S
VIROQUA        FAIR      62  57  83 SW6       30.01S
WIS DELLS      PTCLDY    60  57  90 CALM      29.99F
$$

...ELSEWHERE IN WISCONSIN...


CITY           SKY/WX    TMP DP  RH WIND       PRES   REMARKS
MILWAUKEE      PTCLDY    68  57  68 W5        29.98S
MADISON        CLEAR     62  59  90 CALM      29.99S
GREEN BAY      CLEAR     61  57  87 W3        29.95S
EAU CLAIRE     CLEAR     59  56  89 CALM      29.97F
BLACK RVR FLS  FAIR      55  55 100 CALM      29.98S FOG
MEDFORD        CLEAR     55  55 100 CALM      29.98S
WAUSAU         PTCLDY    62  57  83 NW5       29.96S
WIS RAPIDS     CLOUDY    62  56  80 N9        30.00R
MARSHFIELD     MOCLDY    59  55  87 CALM      29.98S
RICE LAKE      CLEAR     58  56  93 CALM      30.00S
$$

...NORTHEAST IOWA...


CITY           SKY/WX    TMP DP  RH WIND       PRES   REMARKS
WATERLOO       CLEAR     60  58  92 CALM      30.00F
DUBUQUE        PTCLDY    61  57  87 CALM      30.01F
DECORAH        PTCLDY    61  59  94 CALM      30.01R
MASON CITY     CLEAR     55  51  86 W5        30.04S
CHARLES CITY   CLEAR     61  55  82 NW7       30.03S
OELWEIN        PTCLDY    64  57  77 W6        30.02F
$$

...ELSEWHERE IN IOWA...


CITY           SKY/WX    TMP DP  RH WIND       PRES   REMARKS
DES MOINES     CLOUDY    70  59  68 NE5       30.00F
IOWA CITY      MOCLDY    67  58  72 CALM      30.02F
FORT DODGE     CLOUDY    57  52  82 CALM      30.00F
MARSHALLTOWN   CLOUDY    62  59  90 CALM      30.01F
CEDAR RAPIDS   CLOUDY    63  59  87 CALM      30.01F
$$

...NORTHERN ILLINOIS...


CITY           SKY/WX    TMP DP  RH WIND       PRES   REMARKS
CHICAGO-OHARE  CLEAR     67  58  72 W7        30.00S
CHICAGO-MIDWAY PTCLDY    69  57  65 W5        30.00S
MOLINE         CLOUDY    65  57  75 CALM      30.00F
ROCKFORD       MOCLDY    67  59  75 SW3       30.03S
PEORIA         CLOUDY    64  57  78 CALM      30.03F
$$

NOTE: "FAIR" INDICATES FEW OR NO CLOUDS BELOW 12,000 FEET WITH NO
SIGNIFICANT WEATHER AND/OR OBSTRUCTIONS TO VISIBILITY. WIND
SPEEDS ARE IN MILES-PER-HOUR.




USA.gov is the U.S. government's official web portal to all federal, state and local government web resources and services.